Location: Borovka
(49.7741°N, 14.5280°E)
Time: 01:08:30
(UTC+00:00)

BlueWalker 3 - Pass Details

Date: 30 January 2026
Orbit: 451 x 461 km, 53.2° (Epoch: 13 February)

Event Time Altitude Azimuth Distance (km) Brightness Sun altitude
Rises 18:31:14 0° 288° (WNW) 2,460 6.7 -25.5°
Reaches altitude 10° 18:33:24 10° 293° (WNW) 1,586 5.4 -25.8°
Enters shadow 18:35:21 29° 306° (NW) 860 3.6 -26.1°
